Time+07,TemperatureF,Dew PointF,Humidity,Sea Level PressureIn,VisibilityMPH,Wind Direction,Wind SpeedMPH,Gust SpeedMPH,PrecipitationIn,Events,Conditions,WindDirDegrees,DateUTC
12:00 AM,78,75,87,29.83,,SE,10.4,,,,,140,2012-12-10 17:00:00
12:00 AM,78.8,75.2,89,29.86,-9999.0,SE,10.4,-,N/A,,Unknown,130,2012-12-10 17:00:00
1:00 AM,78,75,89,29.82,,SE,9.2,,,,,140,2012-12-10 18:00:00
1:00 AM,78.8,75.2,89,29.86,-9999.0,SE,9.2,-,N/A,,Unknown,140,2012-12-10 18:00:00
2:00 AM,78.8,75.2,89,0.00,-9999.0,SE,9.2,-,N/A,,Unknown,140,2012-12-10 19:00:00
3:00 AM,78,76,90,29.80,,SE,9.2,,,,,130,2012-12-10 20:00:00
3:00 AM,78.8,75.2,89,29.83,-9999.0,SE,9.2,-,N/A,,Unknown,130,2012-12-10 20:00:00
4:00 AM,78,76,90,29.80,,SE,9.2,,,,,140,2012-12-10 21:00:00
4:00 AM,77.0,75.2,94,29.83,-9999.0,SE,9.2,-,N/A,,Unknown,140,2012-12-10 21:00:00
5:00 AM,78.8,77.0,94,29.83,-9999.0,SE,10.4,-,N/A,,Unknown,130,2012-12-10 22:00:00
6:00 AM,78,76,93,29.82,,SE,8.1,,,,,140,2012-12-10 23:00:00
6:00 AM,78.8,77.0,94,29.86,-9999.0,SE,8.1,-,N/A,,Unknown,140,2012-12-10 23:00:00
7:00 AM,79,76,88,29.83,,SE,9.2,,,,,140,2012-12-11 00:00:00
7:00 AM,78.8,77.0,94,29.86,-9999.0,SE,9.2,-,N/A,,Unknown,140,2012-12-11 00:00:00
8:00 AM,80.6,77.0,89,29.86,-9999.0,SSE,8.1,-,N/A,,Unknown,150,2012-12-11 01:00:00
9:00 AM,82,76,78,29.84,,SE,11.5,,,,,140,2012-12-11 02:00:00
9:00 AM,82.4,77.0,84,29.89,-9999.0,SE,11.5,-,N/A,,Unknown,140,2012-12-11 02:00:00
10:00 AM,82,76,78,29.85,,SE,11.5,,,,,140,2012-12-11 03:00:00
10:00 AM,82.4,77.0,84,29.89,-9999.0,SE,11.5,-,N/A,,Unknown,140,2012-12-11 03:00:00
11:00 AM,82.4,77.0,84,29.86,-9999.0,SE,10.4,-,N/A,,Unknown,140,2012-12-11 04:00:00
12:00 PM,83,76,75,29.82,,SE,12.7,,,,,140,2012-12-11 05:00:00
12:00 PM,82.4,77.0,84,29.86,-9999.0,SE,12.7,-,N/A,,Unknown,140,2012-12-11 05:00:00
1:00 PM,82,77,80,29.80,,SE,11.5,,,,,140,2012-12-11 06:00:00
1:00 PM,82.4,77.0,84,29.83,-9999.0,SE,11.5,-,N/A,,Unknown,140,2012-12-11 06:00:00
2:00 PM,80.6,77.0,89,29.80,-9999.0,SSE,10.4,-,N/A,,Unknown,150,2012-12-11 07:00:00
3:00 PM,82,77,81,29.77,,SSE,8.1,,,,,160,2012-12-11 08:00:00
3:00 PM,82.4,77.0,84,29.80,-9999.0,SSE,8.1,-,N/A,,Unknown,160,2012-12-11 08:00:00
4:00 PM,80,76,86,29.78,,SSE,8.1,,,,,150,2012-12-11 09:00:00
4:00 PM,80.6,77.0,89,29.80,-9999.0,SSE,8.1,-,N/A,,Unknown,150,2012-12-11 09:00:00
5:00 PM,78.8,77.0,94,29.80,-9999.0,SSE,9.2,-,N/A,,Unknown,160,2012-12-11 10:00:00
6:00 PM,78,77,95,29.80,,SSE,11.5,,,,,150,2012-12-11 11:00:00
6:00 PM,78.8,77.0,94,29.83,-9999.0,SSE,11.5,-,N/A,,Unknown,150,2012-12-11 11:00:00
7:00 PM,78,76,93,29.82,,SE,12.7,,,,,140,2012-12-11 12:00:00
7:00 PM,78.8,77.0,94,29.86,-9999.0,SE,12.7,-,N/A,,Unknown,140,2012-12-11 12:00:00
8:00 PM,78.8,77.0,94,29.86,-9999.0,SSE,11.5,-,N/A,,Unknown,150,2012-12-11 13:00:00
9:00 PM,78,76,91,29.84,,SE,12.7,,,,,140,2012-12-11 14:00:00
9:00 PM,78.8,75.2,89,29.89,-9999.0,SE,12.7,-,N/A,,Unknown,140,2012-12-11 14:00:00
10:00 PM,78,76,92,29.86,,SE,12.7,,,,,140,2012-12-11 15:00:00
10:00 PM,78.8,77.0,94,29.89,-9999.0,SE,12.7,-,N/A,,Unknown,140,2012-12-11 15:00:00
11:00 PM,78.8,75.2,89,29.89,-9999.0,SE,10.4,-,N/A,,Unknown,140,2012-12-11 16:00:00